GREENCUBE (IO-117)

Last updated on Thu Jun 26 2025 00:03:04 GMT+0000 (Coordinated Universal Time)

1 53109U 22080E 25175.99877741 -.00000003 00000+0 00000+0 0 9994 2 53109 70.1411 62.4576 0008684 6.6739 353.4035 6.42583727 69115
UTC large
Height (km)
Speed (km/s)
/
Latitude / Longitude
Inclination (degrees)
Orbital Period (minutes)
Azimuth
Elevation
Range (km)
Doppler Factor

Next 0 passes for location: London (51.5072 / 0.1276)

Sorry there are no passes over London.